Other Surface Observations
Issued by NWS

Home | Current Version | Previous Version | Text Only | Print | Product List | Glossary On
Versions: 1 2 3 4 5 6 7 8 9 10 11 12 13 14 15 16 17 18 19 20 21 22 23 24 25 26 27 28 29 30 31 32 33 34 35 36 37 38 39 40 41 42 43 44 45 46 47 48 49 50
000
SXUS52 KTAE 200718
OSOTAE
OSOTAE
North Florida/South Alabama/Southwest Georgia Weather Roundup
National Weather Service Tallahassee Florida
300 AM EDT FRI OCT 20 2017

Note: "fair" indicates few or no clouds below 12,000 feet with no
significant weather and/or obstructions to visibility.

!FLZ017-115-028-034-025-200800
...North Florida...

CITY           SKY/WX    TMP DP  RH WIND       PRES   REMARKS
TALLAHASSEE    FAIR      62  58  86 CALM      30.17F
APALACHICOLA   FAIR      67  64  90 NE6       30.16R
PERRY          FAIR      64  60  87 CALM      30.18S
CROSS CITY     FAIR      66  62  87 NE5       30.20S
JACKSONVILLE   FAIR      67  63  87 N5        30.16S
$$

!FLZ112-006-005-002-011-200800
...Florida Panhandle...

CITY           SKY/WX    TMP DP  RH WIND       PRES   REMARKS
MARIANNA       FAIR      62  54  74 E3        30.19S
BONIFAY        NOT AVBL
PANAMA CITY NW FAIR      64  56  75 N5        30.16S
TYNDALL AFB    FAIR      67  59  74 E3        30.17S
TYND DRONE APT FAIR      67  60  78 E6        30.17S
DE FUNIAK SPR  FAIR      64  57  80 NE7       30.19F
EGLIN AFB      CLEAR     68  56  64 NE7       30.17S
DESTIN         FAIR      72  58  61 NE8       30.17S
HURLBURT       CLEAR     65  59  79 NE6       30.16R
CRESTVIEW      FAIR      57  55  93 CALM      30.19F
PENSACOLA      FAIR      69  59  70 E3        30.17R
$$

!ALZ063-066-200800
...South Alabama...

CITY           SKY/WX    TMP DP  RH WIND       PRES   REMARKS
DOTHAN         FAIR      59  56  89 NE6       30.24S
OZARK CAIRNS   FAIR      57  55  92 NE7       30.20S
FT RUCKER HELI FAIR      58  57  96 NE3       30.20S
RUCKER HELI 3  FAIR      60  56  87 NE3       30.20S
RUCKER HELI 2  FAIR      63  56  80 NE5       30.20S
FLORALA APT    FAIR      61  56  83 NE5       30.22S
ANDALUSIA      FAIR      62  57  83 E6        30.20S
TROY           FAIR      54  54 100 CALM      30.23S
EUFALA         FAIR      52  52 100 CALM      30.22S
MOBILE         FAIR      62  58  86 NE6       30.19S
$$

!GAZ120>161-200800
...Southwest and South Central Georgia...

CITY           SKY/WX    TMP DP  RH WIND       PRES   REMARKS
THOMASVILLE    FAIR      59  57  94 CALM      30.20F
BAINBRIDGE     FAIR      63  57  82 CALM      30.20S
MOODY AFB      FAIR      60  58  91 NE3       30.18S
VALDOSTA       FAIR      57  56  96 CALM      30.19S
MOULTRIE       FAIR      61  55  82 N5        30.20F
BLAKELY        FAIR      55  54  94 CALM      30.22S
ALBANY         FAIR      58  54  86 E3        30.23S
TIFTON         FAIR      57  54  90 N3        30.20F
FITZGERALD     FAIR      53  53  99 CALM      30.23F
CORDELE        FAIR      56  53  89 CALM      30.24S
AMERICUS       FAIR      52  52 100 NE3       30.25S
HOMERVILLE     FAIR      59  59 100 NE3       30.20S
$$

!GMZ750-755-770-775-200800
...Coastal and Buoy Obs...

STATION/POSITION TIME  TEMP    WIND        PRES    VSBY  WAVE
                       AIR SEA DIR/SP/G                  HT/PER
                 (UTC) (F)     (DEG/KT/KT) (MB)    (MI)  (FT/S)
KEATON BEACH     0700   66      50/  7/  9 1020.7F
CEDAR KEY        0700   70      40/  8/  9 1020.7F
C TOWER          0700   77      90/ 21/ 23 1021.0F
APALACHICOLA BUO 0650   77 81   80/ 19/ 23 1019.3S         6/ 6
PANAMA CITY BUOY 0650   79 81   80/ 21/ 23 1019.1F         5/ 6
MOBILE BUOY      0700   80 82   80/ 14/ 17 1020.0
ORANGE BCH AL BU 0650   77 79   80/ 17/ 19 1020.4F         3/ 5
$$




USA.gov is the U.S. government's official web portal to all federal, state and local government web resources and services.